EW4392 Weather Reports


time (UTC)temp
C
wind
direction
speed
KPH
gust
KPH
rain 1hr
cm
rain 24hr
cm
rain mn
cm
humidity
%
barometer
mb
20260502163041 13 83 1.6 12.9 0.00 0.00 0.00 48 1013.2
20260502161526 13 39 4.8 19.3 0.00 0.00 0.00 46 1013.4
20260502151529 11 315 3.2 9.7 0.00 0.00 0.00 48 1013.9
20260502123022 8 52 0.0 6.4 0.00 0.00 0.00 61 1013.7
20260502121507 8 59 1.6 4.8 0.00 0.00 0.00 61 1013.6
20260502114504 8 50 0.0 12.9 0.00 0.00 0.00 60 1013.5
20260502113002 8 348 6.4 20.9 0.00 0.00 0.00 59 1013.1
20260502111603 8 73 3.2 12.9 0.00 0.00 0.00 58 1013.2
20260502110059 8 317 4.8 12.9 0.00 0.00 0.00 57 1013.1
20260502104557 8 83 3.2 22.5 0.00 0.00 0.00 57 1013.0
20260502103105 8 307 4.8 12.9 0.00 0.00 0.00 55 1013.3
20260502101603 9 78 1.6 6.4 0.00 0.00 0.00 55 1013.3
20260502100113 9 12 0.0 12.9 0.00 0.00 0.00 56 1013.1
20260502070029 10 219 0.0 4.8 0.00 0.00 0.00 66 1012.7
20260502064528 10 70 0.0 11.3 0.00 0.00 0.00 66 1012.7
20260502063027 11 334 0.0 3.2 0.00 0.00 0.00 65 1012.8
20260502061533 11 307 3.2 11.3 0.00 0.00 0.00 64 1012.9
20260502060023 11 315 0.0 14.5 0.00 0.00 0.00 63 1013.1
20260502054519 11 349 3.2 12.9 0.00 0.00 0.00 63 1012.7
20260502053017 11 230 3.2 16.1 0.00 0.00 0.00 62 1012.9
20260502051522 12 46 4.8 14.5 0.00 0.00 0.00 62 1012.9
20260502050012 12 327 0.0 9.7 0.00 0.00 0.00 63 1013.0
20260502044509 12 329 0.0 4.8 0.00 0.00 0.00 62 1012.9
20260502043005 12 324 4.8 14.5 0.00 0.00 0.00 62 1012.8
20260502041507 13 330 0.0 8.0 0.00 0.00 0.00 64 1012.8
20260502040002 13 320 0.0 16.1 0.00 0.00 0.00 62 1012.6
20260502034600 13 283 12.9 24.1 0.00 0.00 0.00 61 1012.5
20260502033059 13 34 8.0 22.5 0.00 0.00 0.00 61 1012.2
20260502031601 14 301 8.0 20.9 0.00 0.00 0.00 60 1012.1
20260502030111 14 305 3.2 22.5 0.00 0.00 0.00 58 1011.9
20260502024605 15 322 8.0 19.3 0.00 0.00 0.00 57 1011.9
20260502023057 15 297 9.7 20.9 0.00 0.00 0.00 56 1011.7
20260502021602 15 316 6.4 12.9 0.00 0.00 0.00 61 1011.4
20260502020055 14 306 0.0 1.6 0.00 0.00 0.00 65 1010.6
20260502014554 14 315 0.0 0.0 0.00 0.00 0.00 65 1010.6
20260502013053 14 320 0.0 0.0 0.00 0.00 0.00 63 1010.7
20260502011553 14 330 0.0 3.2 0.00 0.00 0.00 62 1010.4
20260502010107 15 322 0.0 1.6 0.00 0.00 0.00 61 1010.3
20260502004559 15 296 0.0 1.6 0.00 0.00 0.00 60 1009.9
20260502003051 16 214 0.0 3.2 0.00 0.00 0.00 56 1009.8
20260502001551 16 121 0.0 6.4 0.00 0.00 0.00 56 1009.7
20260502000051 16 54 0.0 3.2 0.00 0.00 0.00 54 1009.4
20260501234550 16 311 1.6 4.8 0.00 0.00 0.00 54 1009.2
20260501233049 16 125 1.6 11.3 0.00 0.00 0.00 53 1008.9
20260501231548 17 211 1.6 9.7 0.00 0.00 0.00 53 1008.8
20260501230058 17 215 4.8 12.9 0.00 0.00 0.00 51 1008.8
20260501224547 17 216 3.2 14.5 0.00 0.00 0.00 50 1008.7
20260501223053 18 198 3.2 12.9 0.00 0.00 0.00 48 1008.8
20260501221543 18 119 4.8 14.5 0.00 0.00 0.00 48 1009.0
20260501220047 18 212 6.4 19.3 0.00 0.00 0.00 47 1009.0
20260501214553 18 80 6.4 17.7 0.00 0.00 0.00 48 1009.2
20260501213040 18 65 4.8 14.5 0.00 0.00 0.00 47 1009.2
20260501211543 18 112 6.4 17.7 0.00 0.00 0.00 46 1009.3
20260501210044 18 258 4.8 16.1 0.00 0.00 0.00 48 1009.6
20260501204607 18 129 6.4 14.5 0.00 0.00 0.00 45 1009.7
20260501203036 18 145 4.8 12.9 0.00 0.00 0.00 45 1009.8
20260501201534 18 124 1.6 17.7 0.00 0.00 0.00 48 1010.1
20260501200031 18 160 8.0 17.7 0.00 0.00 0.00 44 1010.4
20260501194529 18 105 4.8 12.9 0.00 0.00 0.00 45 1010.7
20260501193029 18 191 4.8 12.9 0.00 0.00 0.00 47 1011.1
20260501191525 18 130 1.6 14.5 0.00 0.00 0.00 46 1011.3
20260501190023 17 167 4.8 11.3 0.00 0.00 0.00 46 1011.5
20260501184525 17 126 6.4 14.5 0.00 0.00 0.00 44 1011.6
20260501183017 17 207 6.4 16.1 0.00 0.00 0.00 46 1011.8
20260501181513 17 112 4.8 17.7 0.00 0.00 0.00 46 1012.0
20260501180016 17 152 6.4 14.5 0.00 0.00 0.00 49 1012.4
20260501174529 16 140 4.8 11.3 0.00 0.00 0.00 50 1012.6
20260501173008 16 133 6.4 14.5 0.00 0.00 0.00 48 1012.9